Regional Weather Roundup
Issued by NWS Midland/Odessa, TX

Skip options and go directly to product.
Home | Oldest Version | Previous Version | Current Version | All | Text Only | Save Text | Print | Product List | Glossary On

Skip product version selection by date and time.   
218
ASUS44 KMAF 260310
RWRMAF
MIDLAND AREA WEATHER ROUNDUP
NATIONAL WEATHER SERVICE MIDLAND TX
1000 PM CDT THU AUG 25 2016

...IN SOUTHWEST TEXAS AND SOUTHEAST NEW MEXICO...

CITY           SKY/WX    TMP DP  RH WIND       PRES   REMARKS
ALPINE         CLOUDY    66  61  85 E3        30.24S
ANDREWS        NOT AVBL
ARTESIA        PTCLDY    70  63  78 SE12G20   30.12R
BIG SPRING     PTCLDY    74  62  64 NW7       30.12R
CARLSBAD       PTCLDY    68  62  81 E12       30.09R
DRYDEN           N/A     82  64  54 VRB7      30.04R
FORT STOCKTON  CLOUDY    69  64  84 CALM      30.11R
GUAD PASS      CLOUDY    66  53  63 S5        30.21S
HOBBS          LGT RAIN  64  64 100 E12       30.15F
MARFA          CLOUDY   N/A N/A N/A NE14      30.21R
MIDLAND AIRPK  CLOUDY    72  61  69 NW8       30.12R
MIDLAND INTL   CLOUDY    70  61  73 NW9       30.11R
ODESSA         CLOUDY    68  62  81 NE8       30.12R
PECOS          MOCLDY    71  64  80 S7        30.07R
PRESIDIO       NOT AVBL
SEMINOLE       LGT RAIN  65  62  90 NW8       30.15R
SNYDER           N/A     78  54  42 S6        30.07R
WINK           CLOUDY    72  64  76 MISG      30.07S
$$
...OTHER STATIONS IN TEXAS...

CITY           SKY/WX    TMP DP  RH WIND       PRES   REMARKS
ABILENE        CLEAR     80  60  50 SE12      30.06R
AMARILLO       RAIN      62  60  93 CALM      30.20R FOG
AUSTIN         MOCLDY    79  73  82 CALM      30.01R
BROWNSVILLE    CLEAR     83  77  82 SE9       29.97R
CORPUS CHRISTI PTCLDY    83  76  79 SE7       29.98R
DALLAS FTW     MOCLDY    85  71  63 SE9       30.02R
DEL RIO        CLEAR     81  65  58 E8        29.98R
EL PASO        MOCLDY    76  54  46 NE8       30.10R
HOUSTON INT    MOCLDY    78  73  84 E8        30.02R
LUBBOCK        TSTM      67  64  90 NW12      30.14S
SAN ANGELO     CLEAR     80  57  45 SE5       30.05R
SAN ANTONIO    PTCLDY    80  72  76 SE8       30.02R
WACO           MOCLDY    83  73  72 E8        30.02R
WICHITA FALLS  NOT AVBL
$$
...OTHER LOCATIONS IN NEW MEXICO...

CITY           SKY/WX    TMP DP  RH WIND       PRES   REMARKS
ALAMAGORDO     PTCLDY    73  48  40 SW9       30.10R
ALBUQUERQUE    PTCLDY    73  48  41 E16       30.15R
CANNON AFB     CLOUDY    64  59  82 E8        30.19R THUNDER
CLOVIS         CLOUDY    63  55  77 E5        30.18R
HOLLOMAN AFB   PTCLDY    73  52  46 S15       30.08R
ROSWELL        MOCLDY    71  59  65 SE3       30.10R
RUIDOSO          N/A     61  52  72 SE5       30.30R
SANTA FE       CLEAR     65  44  46 SE7       30.22R
TRUTH OR CONSE CLEAR     78  45  30 W7        30.10R
TUCUMCARI      PTCLDY    71  59  65 E15       30.14R
$$

USA.gov is the U.S. government's official web portal to all federal, state and local government web resources and services.